Location: Forst
(46.9333°N, 15.4333°E)
Time: 05:11:57
(UTC+00:00)

USA 281 - Pass Details

Date: 01 December 2020
Orbit: 1074 x 1084 km, 106.0° (Epoch: 08 January)

Event Time Altitude Azimuth Distance (km) Brightness Sun altitude
Rises 17:18:21 0° 145° (SE) 3,871 5.9 -21.0°
Reaches altitude 10° 17:20:51 10° 143° (SE) 2,917 5.2 -21.4°
Maximum altitude 17:27:22 72° 60° (ENE) 1,135 3.1 -22.5°
Drops below altitude 10° 17:33:55 10° 338° (NNW) 2,927 5.6 -23.6°
Sets 17:36:26 0° 337° (NNW) 3,885 6.3 -24.0°
